FALCON 9 DEB (52597 NORAD) Tracking and Keplerian Element Data

This shows tracking and keplerian element data for the satellite.

Feedback or suggestion? Click here.




ElementValue
Catalog52597
NameFALCON 9 DEB
Epoch Orbit717
Epoch Day175.75941921
Epoch Year2022
RAAN77.7052
Inclination53.2101
Eccentricity0.0005599
Argument of Perigee258.8293
Mean Anonmoly101.213
Mean Motion16.48361516
Decay Rate0.11462474
L11 52597U 22051BJ 22175.75941921 .11462474 12561-4 17055-3 0 9992
L22 52597 53.2101 77.7052 0005599 258.8293 101.2130 16.48361516 7179

Live tracking and technical data element details for FALCON 9 DEB (NORAD 52597). FALCON 9 DEB can be tracked NOW for your location showing map with azimuth and elevation plus other details from your city location.

Track the satellite on the map from your city or location and see movement details for azimuth, elevation, latitude, longitude, range, height, and movement on the map or in text.







IsCatalogInMostPopularTable: catalog: 52597, numindb: 6
Update: records affected: 1



GetName: 52597 FALCON 9 DEB

Hit Count: updated at: Thu, 18 Aug 2022 19:19:38 GMT